Home   Weather   Bad Vöslau   Past weeks

Flag for Austria Past Weather in Bad Vöslau, Lower Austria, Austria — Yesterday and Last 2 Weeks

Now
31 °F

Clear.


Feels Like: 27 °F
Forecast: 21 / 32 °F
Wind: 5 mph from North

Location: Eisenstadt

Current Time: Dec 6, 2016 at 10:51:56 pm

Latest Report: Dec 6, 2016 at 10:00 pm


Visibility: 9 mi

Pressure: 30.57 "Hg

Humidity: 78%

Dew Point: 25 °F

Location of Bad VöslauLocation

Past Weather in Bad Vöslau — Graph

°F

Bad Vöslau Temperature Yesterday

Maximum temperature yesterday: 38 °F (at 1:00 pm)
Minimum temperature yesterday: 26 °F (at 5:00 am)
Average temperature yesterday: 31 °F

High & Low Weather Summary for the Past Weeks

 TemperatureHumidityPressure
High63 °F (Nov 22, 2:00 pm)97% (Nov 25, 7:00 am)30.55 "Hg (Nov 25, 7:00 am)
Low24 °F (Dec 4, 8:00 am)32% (Nov 30, 10:00 pm)29.78 "Hg (Dec 2, 8:00 am)
Average40 °F76%30.21 "Hg
* Reported Nov 21 6:00 pm — Dec 6 6:00 pm, Bad Vöslau, Weather by CustomWeather, © 2016

Note: Actual official high and low records may vary slightly from our data, if they occured in-between our weather recording intervals... More about our weather records

Advertising

Bad Vöslau Weather History for the Previous 24 Hours

Scroll right to see more
 ConditionsComfort  
Time TempWeatherWind HumidityBarometerVisibility
6:00 pm
Tue, Dec 6
33 °FChilly.1 mph73%30.50 "HgN/A
5:00 pm33 °FChilly.3 mph74%30.48 "HgN/A
4:00 pm34 °FSunny.5 mph73%30.45 "Hg6 mi
3:00 pm34 °FChilly.8 mph75%30.43 "HgN/A
2:00 pm35 °FChilly.9 mph75%30.42 "HgN/A
1:00 pm36 °FFog.8 mph75%30.41 "Hg2 mi
12:00 pm36 °FChilly.1 mph77%30.42 "HgN/A
11:00 am32 °FChilly.3 mph82%30.43 "HgN/A
10:00 am31 °FFog.1 mph85%30.42 "Hg1 mi
9:00 am29 °FChilly.1 mph88%30.42 "HgN/A
8:00 am29 °FChilly.1 mph88%30.40 "HgN/A
7:00 am29 °FFog.1 mph90%30.39 "Hg2 mi
6:00 am29 °FOvercast.1 mph90%30.39 "Hg6 mi
5:00 am29 °FChilly.2 mph90%30.38 "HgN/A
4:00 am29 °FOvercast.1 mph86%30.39 "Hg6 mi
3:00 am29 °FChilly.1 mph88%30.40 "HgN/A
2:00 am29 °FChilly.1 mph88%30.40 "HgN/A
1:00 am29 °FOvercast.1 mph87%30.40 "Hg7 mi
12:00 am29 °FChilly.1 mph89%30.40 "HgN/A
11:00 pm
Mon, Dec 5
29 °FChilly.3 mph89%30.41 "HgN/A
10:00 pm29 °FClear.5 mph89%30.40 "Hg5 mi
Weather by CustomWeather, © 2016

See weather overviewHow to use our weather pages